This is the latest recevied weather packets stored in our database for station/object KA7RLM. If no packets are shown the sender has not sent any weather packets the latest 10 day(s).
| Time | Temp. | Humidity | Pressure | Rain* | Wind** | Luminosity | Snow |
|---|---|---|---|---|---|---|---|
| 1777618819 | 15° C | 74% | 1016.4 hPa | 0 mm | - | - | - |
| 1777617022 | 15.56° C | 71% | 1016.6 hPa | 0 mm | - | - | - |
| 1777611650 | 16.67° C | 65% | 1016.4 hPa | 0 mm | - | - | - |
| 1777610425 | 17.78° C | 61% | 1016.3 hPa | 0 mm | - | - | - |
| 1777609823 | 17.78° C | 60% | 1016.1 hPa | 0 mm | - | - | - |
| 1777609226 | 18.33° C | 58% | 1015.9 hPa | 0 mm | - | - | - |
| 1777608027 | 18.89° C | 55% | 1015.8 hPa | 0 mm | - | - | - |
| 1777603217 | 25° C | 34% | 1015.7 hPa | 0 mm | - | - | - |
| 1777600829 | 27.22° C | 28% | 1015.8 hPa | 0 mm | - | - | - |
| 1777598431 | 27.22° C | 29% | 1016.2 hPa | 0 mm | - | - | - |
| 1777597817 | 26.11° C | 29% | 1016.2 hPa | 0 mm | - | - | - |
| 1777596021 | 25.56° C | 33% | 1016.5 hPa | 0 mm | - | - | - |
| 1777594833 | 25.56° C | 33% | 1016.7 hPa | 0 mm | - | - | - |
| 1777594224 | 25° C | 35% | 1016.8 hPa | 0 mm | - | - | - |
| 1777592418 | 25° C | 35% | 1017 hPa | 0 mm | - | - | - |
| 1777591230 | 24.44° C | 37% | 1017.4 hPa | 0 mm | - | - | - |
| 1777587630 | 24.44° C | 43% | 1018 hPa | 0 mm | - | - | - |
| 1777587033 | 24.44° C | 45% | 1018.1 hPa | 0 mm | - | - | - |
| 1777582224 | 21.11° C | 54% | 1018.8 hPa | 0 mm | - | - | - |
| 1777576224 | 20° C | 60% | 1019.7 hPa | 0 mm | - | - | - |
| 1777571428 | 16.67° C | 70% | 1020.6 hPa | 0 mm | - | - | - |
| 1777570830 | 16.11° C | 71% | 1020.6 hPa | 0 mm | - | - | - |
| 1777567217 | 13.89° C | 78% | 1021.1 hPa | 0 mm | - | - | - |
| 1777566626 | 14.44° C | 76% | 1021.3 hPa | 0 mm | - | - | - |
| 1777564220 | 13.89° C | 77% | 1021.4 hPa | 0 mm | - | - | - |
* Rain latest hour (hover to see other rain measurements)
** Current wind speed in m/s (hover to see current wind gust speed)